This demonstration page uses our WeatherBlox Daily Observations layout. Learn more.

Left ArrowRight Arrow

Hourly Observations for July 13, 2018

Temp ( °F °C ) Dew Point ( °F °C ) Humidity (%) Winds ( mph kmh ) Pressure ( in mb ) Visibility ( mi km ) Precip ( " mm )
12:15 am 00:15 Clear 79 26.2 66 19 65 65 S 10 17 29.91 1013 10 16 N/A
12:35 am 00:35 Mostly Cloudy 81 27 66 18.9 61 61 W 16 26 29.91 1013 10 16 N/A
12:55 am 00:55 Cloudy 75 23.8 65 18.6 73 73 NNW 18 30 29.97 1015 10 16 N/A
1:15 am 01:15 Cloudy 73 22.5 64 17.5 73 73 NNW 16 26 29.97 1015 10 16 N/A
1:35 am 01:35 Mostly Cloudy 69 20.6 64 17.8 84 84 N 8 13 29.97 1015 10 16 0.05 1.27
1:55 am 01:55 Partly Cloudy with Light Rain 69 20.3 64 18 87 87 NE 5 7 30.00 1016 10 16 0.07 1.78
2:15 am 02:15 Clear 68 19.8 64 18 89 89 NNE 6 9 29.97 1015 10 16 N/A
2:35 am 02:35 Partly Cloudy 68 19.8 64 18 89 89 NE 6 9 29.97 1015 10 16 N/A
2:55 am 02:55 Partly Cloudy 67 19.6 64 17.8 89 89 ENE 6 9 29.97 1015 10 16 N/A
3:15 am 03:15 Clear 67 19.5 64 17.7 89 89 ENE 6 9 29.97 1015 10 16 N/A
3:35 am 03:35 Clear 67 19.5 64 17.7 89 89 ENE 5 7 29.97 1015 10 16 N/A
3:55 am 03:55 Partly Cloudy 67 19.5 64 17.8 90 90 N N/A 29.97 1015 10 16 0.01 0.25
4:15 am 04:15 Partly Cloudy 67 19.5 64 18 91 91 N N/A 29.97 1015 10 16 N/A
4:35 am 04:35 Partly Cloudy 67 19.3 64 18 92 92 NNE 3 6 29.97 1015 10 16 N/A
4:55 am 04:55 Clear 67 19.3 64 18 92 92 N N/A 29.97 1015 10 16 N/A
5:15 am 05:15 Partly Cloudy 66 19 64 17.8 93 93 NW 5 7 30.00 1016 10 16 N/A
5:35 am 05:35 Partly Cloudy 66 19 64 18 94 94 N N/A 30.00 1016 10 16 N/A
5:55 am 05:55 Partly Cloudy 67 19.2 65 18.3 95 95 N N/A 30.00 1016 10 16 N/A
6:15 am 06:15 Mostly Cloudy with Rain 67 19.5 65 18.5 94 94 NE 3 6 30.00 1016 10 16 N/A
6:35 am 06:35 Cloudy with Drizzle 67 19.6 65 18.6 94 94 W 6 9 30.03 1017 10 16 N/A
6:55 am 06:55 Cloudy with Light Rain 67 19.7 66 18.7 94 94 N N/A 30.03 1017 10 16 0.01 0.25
7:15 am 07:15 Cloudy with Rain 67 19.7 66 18.7 94 94 NE 7 11 30.00 1016 7 11 0.03 0.76
7:35 am 07:35 Cloudy with Light Rain 68 19.8 66 18.9 95 95 NNE 10 17 30.00 1016 10 16 0.04 1.02
7:55 am 07:55 Partly Cloudy 68 19.8 66 18.8 94 94 NNE 6 9 30.00 1016 10 16 0.04 1.02
8:15 am 08:15 Mostly Cloudy 68 20.1 66 19.1 94 94 NNE 5 7 30.03 1017 10 16 N/A
8:35 am 08:35 Mostly Cloudy 69 20.5 67 19.5 94 94 ENE 6 9 30.03 1017 10 16 N/A
8:55 am 08:55 Cloudy 70 21 67 19.5 91 91 NE 5 7 30.00 1016 10 16 N/A
9:15 am 09:15 Cloudy 70 21.2 67 19.7 91 91 NE 6 9 30.00 1016 10 16 N/A
9:35 am 09:35 Cloudy 70 21.2 67 19.7 91 91 N 7 11 30.00 1016 10 16 N/A
9:55 am 09:55 Cloudy 70 21.2 67 19.2 88 88 NE 7 11 30.00 1016 10 16 N/A
10:15 am 10:15 Cloudy with Nearby Thunderstorms 71 21.8 67 19.5 87 87 NE 9 15 30.00 1016 10 16 N/A
10:35 am 10:35 Cloudy 72 22 67 19.6 86 86 NE 7 11 30.00 1016 10 16 N/A
10:55 am 10:55 Cloudy 72 22.3 68 19.8 86 86 NE 7 11 30.00 1016 10 16 N/A
11:15 am 11:15 Cloudy 73 22.6 68 20 85 85 NNE 6 9 30.00 1016 10 16 N/A
11:35 am 11:35 Cloudy 74 23.2 68 20.1 83 83 ENE 6 9 30.00 1016 10 16 N/A
11:55 am 11:55 Cloudy 75 24 69 20.4 80 80 ENE 6 9 30.00 1016 10 16 N/A
12:15 pm 12:15 Cloudy 75 23.9 69 20.5 81 81 NE 5 7 30.00 1016 10 16 N/A
12:35 pm 12:35 Cloudy with Haze 76 24.6 69 20.7 79 79 NE 6 9 29.97 1015 5 8 N/A
12:55 pm 12:55 Cloudy 77 24.8 69 20.7 78 78 NNE 6 9 29.97 1015 10 16 N/A
1:15 pm 13:15 Mostly Cloudy 77 24.8 69 20.4 77 77 NE 5 7 29.97 1015 10 16 N/A
1:35 pm 13:35 Mostly Cloudy 78 25.7 69 20.7 74 74 NNE 3 6 29.97 1015 10 16 N/A
1:55 pm 13:55 Partly Cloudy 80 26.5 70 21 72 72 NNE 5 7 29.97 1015 10 16 N/A
2:15 pm 14:15 Mostly Cloudy 80 26.4 69 20.4 70 70 NE 6 9 29.97 1015 10 16 N/A
2:35 pm 14:35 Mostly Cloudy 81 27 70 21.3 71 71 E 5 7 30.00 1016 10 16 N/A
2:55 pm 14:55 Mostly Cloudy 80 26.7 70 21 71 71 ENE 6 9 29.97 1015 10 16 N/A
3:15 pm 15:15 Mostly Cloudy 81 27.2 70 20.9 69 69 ENE 7 11 29.97 1015 10 16 N/A
3:35 pm 15:35 Mostly Cloudy 82 27.9 72 22 70 70 ENE 7 11 29.94 1014 10 16 N/A
3:55 pm 15:55 Partly Cloudy 82 27.8 70 21.3 68 68 ENE 8 13 29.97 1015 10 16 N/A
4:15 pm 16:15 Partly Cloudy 81 27.4 70 21.1 69 69 NE 6 9 29.97 1015 10 16 N/A
4:35 pm 16:35 Partly Cloudy 82 27.5 70 20.9 67 67 NE 7 11 29.97 1015 10 16 N/A
4:55 pm 16:55 Partly Cloudy 82 27.7 70 20.9 67 67 NE 7 11 29.91 1013 10 16 N/A
5:15 pm 17:15 Partly Cloudy 82 28 70 21.1 66 66 NE 7 11 29.91 1013 10 16 N/A
5:35 pm 17:35 Partly Cloudy 82 28 70 20.9 65 65 ENE 10 17 29.91 1013 10 16 N/A
5:55 pm 17:55 Partly Cloudy 82 27.9 70 21.1 67 67 ENE 8 13 29.91 1013 10 16 N/A
6:15 pm 18:15 Partly Cloudy 82 27.7 69 20.6 65 65 E 8 13 29.91 1013 10 16 N/A
6:35 pm 18:35 Partly Cloudy 82 27.7 69 20.5 65 65 ENE 8 13 29.91 1013 10 16 N/A
6:55 pm 18:55 Partly Cloudy 80 26.9 69 20.3 67 67 ENE 7 11 29.94 1014 10 16 N/A
7:15 pm 19:15 Partly Cloudy 80 26.6 69 20.7 70 70 E 9 15 29.94 1014 10 16 N/A
7:35 pm 19:35 Partly Cloudy 80 26.8 69 20.6 69 69 E 14 22 29.94 1014 10 16 N/A
7:55 pm 19:55 Partly Cloudy 79 26.2 70 21.1 74 74 E 10 17 29.94 1014 10 16 N/A
8:15 pm 20:15 Sunny 79 25.9 69 20.8 74 74 E 9 15 29.94 1014 10 16 N/A
8:35 pm 20:35 Sunny 77 25.1 69 20.8 77 77 E 9 15 29.97 1015 10 16 N/A
8:55 pm 20:55 Sunny 76 24.7 69 20.5 78 78 E 6 9 29.97 1015 10 16 N/A
9:15 pm 21:15 Clear 76 24.3 69 20.7 80 80 ESE 7 11 29.97 1015 10 16 N/A
9:35 pm 21:35 Partly Cloudy 75 24.1 69 20.6 81 81 ESE 6 9 30.00 1016 10 16 N/A
9:55 pm 21:55 Mostly Cloudy 75 24.1 69 20.5 80 80 ESE 6 9 30.00 1016 10 16 N/A
10:15 pm 22:15 Partly Cloudy 74 23.1 69 20.3 84 84 E 5 7 30.00 1016 10 16 N/A
10:35 pm 22:35 Clear 72 22.4 68 20.1 87 87 E 5 7 30.00 1016 10 16 N/A
10:55 pm 22:55 Clear 71 21.5 68 20 91 91 ENE 3 6 30.00 1016 10 16 N/A
11:15 pm 23:15 Clear 70 21.1 68 20 93 93 E 5 7 30.00 1016 10 16 N/A
11:35 pm 23:35 Clear 70 21 67 19.6 92 92 E 3 6 30.00 1016 10 16 N/A
11:55 pm 23:55 Clear 69 20.8 67 19.5 92 92 N N/A 30.06 1018 10 16 N/A

Powered by AerisWeather